Weather History for Crosby, ND

Change the Weather History Date:

Friday, November 22, 2013

  Actual Average (KISN) Record (KISN)
Temperature  
Mean Temperature 2 °F 23 °F  
Max Temperature 15 °F 34 °F 62 °F (1939)
Min Temperature -11 °F 13 °F -26 °F (1898)
Degree Days  
Heating Degree Days 63 42  
Month to date heating degree days 784  
Since 1 July heating degree days 1811  
Cooling Degree Days 0 0  
Month to date cooling degree days 0  
Year to date cooling degree days 456  
Moisture  
Dew Point -2 °F    
Average Humidity 82    
Maximum Humidity 93    
Minimum Humidity 73    
Precipitation  
Precipitation 0.00 in 0.02 in 0.14 in (1967)
Month to date precipitation 0.51  
Year to date precipitation 13.61  
Sea Level Pressure  
Sea Level Pressure 30.62 in    
Wind  
Wind Speed 11 mph (NW)    
Max Wind Speed 16 mph    
Max Gust Speed 22 mph    
Visibility 10 miles    
Events Snow    
T = Trace of Precipitation, MM = Missing Value Source: NWS Daily Summary

Daily Weather History Graph

Daily Weather History Graph

Search for Another Location

Airport:

Trip Planner

Search our weather history database for the weather conditions in past years. The results will help you decide how hot, cold, wet, or windy it might be!

Date:

Astronomy

Nov. 22, 2013 Rise Set
Actual Time 8:13 AM CST 5:04 PM CST
Civil Twilight 7:38 AM CST 5:40 PM CST
Nautical Twilight 6:59 AM CST 6:19 PM CST
Astronomical Twilight 6:21 AM CST 6:57 PM CST
Moon 9:46 PM CST (11/22) 11:52 AM CST (11/22)
Length of Visible Light 10h 02m
Length of Day
8h 51m
Waning Gibbous, 78% of the Moon is Illuminated
Nov 22
Waning Gibbous
Nov 25
Last Quarter
Dec 2
New
Dec 9
First Quarter
Dec 17
Full

Hourly Weather History & Observations

Time (CST) Temp. Windchill Dew Point Humidity Pressure Visibility Wind Dir Wind Speed Gust Speed Precip Events Conditions
12:15 AM 15.8 °F 2.1 °F 8.6 °F 73% 30.36 in 10.0 mi SW 12.7 mph 18.4 mph N/A   Unknown
12:35 AM 15.8 °F 2.1 °F 8.6 °F 73% 30.37 in 10.0 mi West 12.7 mph - N/A   Unknown
12:55 AM 15.8 °F 3.4 °F 8.6 °F 73% 30.37 in 10.0 mi West 10.4 mph - N/A   Unknown
1:15 AM 15.8 °F 2.1 °F 8.6 °F 73% 30.37 in 10.0 mi West 12.7 mph - N/A   Unknown
1:35 AM 15.8 °F 2.1 °F 8.6 °F 73% 30.37 in 10.0 mi West 12.7 mph - N/A   Unknown
1:55 AM 15.8 °F 2.7 °F 8.6 °F 73% 30.38 in 10.0 mi WNW 11.5 mph - N/A   Unknown
2:15 AM 15.8 °F 3.4 °F 10.4 °F 79% 30.38 in 10.0 mi WNW 10.4 mph - N/A   Unknown
2:35 AM 14.0 °F 2.0 °F 10.4 °F 86% 30.39 in 10.0 mi WNW 9.2 mph - N/A   Unknown
2:55 AM 14.0 °F 2.0 °F 10.4 °F 86% 30.39 in 10.0 mi WNW 9.2 mph - N/A   Unknown
3:15 AM 14.0 °F 2.0 °F 12.2 °F 93% 30.39 in 10.0 mi NW 9.2 mph - N/A   Unknown
3:35 AM 14.0 °F 0.5 °F 12.2 °F 93% 30.40 in 10.0 mi NNW 11.5 mph - N/A   Unknown
3:55 AM 14.0 °F -0.2 °F 12.2 °F 93% 30.41 in 10.0 mi NNW 12.7 mph - N/A Snow Light Snow
4:15 AM 14.0 °F -2.0 °F 10.4 °F 86% 30.41 in 10.0 mi NNW 16.1 mph - N/A Snow Light Snow
4:35 AM 14.0 °F 0.5 °F 8.6 °F 79% 30.42 in 10.0 mi NNW 11.5 mph - N/A   Unknown
4:55 AM 12.2 °F -3.7 °F 8.6 °F 85% 30.43 in 10.0 mi NNW 15.0 mph 21.9 mph N/A   Unknown
5:15 AM 12.2 °F -3.1 °F 8.6 °F 85% 30.44 in 10.0 mi NNW 13.8 mph - N/A   Unknown
5:35 AM 12.2 °F -4.3 °F 8.6 °F 85% 30.45 in 10.0 mi NNW 16.1 mph - N/A   Unknown
5:55 AM 10.4 °F -5.4 °F 8.6 °F 92% 30.46 in 10.0 mi NNW 13.8 mph - N/A Snow Light Snow
6:15 AM 10.4 °F -6.6 °F 5.0 °F 79% 30.47 in 10.0 mi NNW 16.1 mph - N/A   Unknown
6:35 AM 8.6 °F -8.9 °F 5.0 °F 85% 30.48 in 10.0 mi NW 16.1 mph - N/A   Unknown
6:55 AM 8.6 °F -7.7 °F 3.2 °F 79% 30.49 in 10.0 mi NNW 13.8 mph - N/A   Unknown
7:15 AM 6.8 °F -11.3 °F 1.4 °F 79% 30.51 in 10.0 mi NNW 16.1 mph - N/A   Unknown
7:35 AM 5.0 °F -13.6 °F -0.4 °F 78% 30.52 in 10.0 mi NNW 16.1 mph - N/A   Unknown
7:55 AM 5.0 °F -13.0 °F -0.4 °F 78% 30.54 in 10.0 mi NNW 15.0 mph - N/A   Unknown
8:15 AM 3.2 °F -13.1 °F -0.4 °F 85% 30.55 in 10.0 mi NNW 11.5 mph - N/A   Unknown
8:35 AM 1.4 °F -17.6 °F -0.4 °F 92% 30.56 in 10.0 mi NNW 15.0 mph - N/A   Unknown
8:55 AM 1.4 °F -16.9 °F -0.4 °F 92% 30.58 in 10.0 mi North 13.8 mph - N/A   Unknown
9:15 AM 1.4 °F -16.1 °F -2.2 °F 85% 30.59 in 10.0 mi NNW 12.7 mph - N/A   Unknown
9:35 AM 1.4 °F -15.3 °F -4.0 °F 78% 30.61 in 10.0 mi North 11.5 mph - N/A   Unknown
9:55 AM 1.4 °F -16.1 °F -4.0 °F 78% 30.62 in 10.0 mi North 12.7 mph - N/A   Unknown
10:15 AM 1.4 °F -16.9 °F -4.0 °F 78% 30.63 in 10.0 mi North 13.8 mph - N/A   Unknown
10:35 AM 1.4 °F -15.3 °F -4.0 °F 78% 30.64 in 10.0 mi North 11.5 mph - N/A   Unknown
10:55 AM 1.4 °F -16.1 °F -4.0 °F 78% 30.65 in 10.0 mi North 12.7 mph - N/A   Unknown
11:15 AM 1.4 °F -15.3 °F -4.0 °F 78% 30.66 in 10.0 mi NNW 11.5 mph - N/A   Unknown
11:35 AM 1.4 °F -15.3 °F -2.2 °F 85% 30.66 in 10.0 mi North 11.5 mph - N/A   Unknown
11:55 AM 1.4 °F -15.3 °F -2.2 °F 85% 30.67 in 10.0 mi NNW 11.5 mph - N/A   Unknown
12:15 PM -0.4 °F -18.4 °F -4.0 °F 85% 30.67 in 5.0 mi NNW 12.7 mph - N/A   Mist
12:35 PM -0.4 °F -18.4 °F -4.0 °F 85% 30.67 in 10.0 mi NNW 12.7 mph - N/A   Unknown
12:55 PM 1.4 °F -14.5 °F -2.2 °F 85% 30.68 in 10.0 mi NNW 10.4 mph - N/A   Unknown
1:15 PM 1.4 °F -16.1 °F -2.2 °F 85% 30.68 in 10.0 mi NNW 12.7 mph - N/A   Unknown
1:35 PM 3.2 °F -12.2 °F -2.2 °F 78% 30.69 in 10.0 mi NNW 10.4 mph - N/A   Unknown
1:55 PM 3.2 °F -13.1 °F -2.2 °F 78% 30.70 in 10.0 mi NNW 11.5 mph - N/A   Unknown
2:15 PM 3.2 °F -13.1 °F -2.2 °F 78% 30.70 in 10.0 mi NNW 11.5 mph - N/A   Unknown
2:35 PM 3.2 °F -13.1 °F -2.2 °F 78% 30.70 in 10.0 mi NNW 11.5 mph - N/A   Unknown
2:55 PM 3.2 °F -12.2 °F -2.2 °F 78% 30.70 in 10.0 mi North 10.4 mph - N/A   Unknown
3:15 PM 3.2 °F -13.1 °F -2.2 °F 78% 30.70 in 10.0 mi North 11.5 mph - N/A   Unknown
3:35 PM 1.4 °F -14.5 °F -4.0 °F 78% 30.71 in 10.0 mi NNW 10.4 mph - N/A   Unknown
3:55 PM 1.4 °F -15.3 °F -4.0 °F 78% 30.72 in 10.0 mi NNW 11.5 mph - N/A   Unknown
4:15 PM 1.4 °F -13.5 °F -4.0 °F 78% 30.73 in 10.0 mi NNW 9.2 mph - N/A   Unknown
4:35 PM -0.4 °F -16.7 °F -4.0 °F 85% 30.73 in 10.0 mi NNW 10.4 mph - N/A   Unknown
4:55 PM -0.4 °F -14.7 °F -4.0 °F 85% 30.73 in 10.0 mi NNW 8.1 mph - N/A   Unknown
5:15 PM -0.4 °F -14.7 °F -5.8 °F 78% 30.73 in 10.0 mi NNW 8.1 mph - N/A   Unknown
5:35 PM -2.2 °F -16.8 °F -5.8 °F 85% 30.74 in 10.0 mi NNW 8.1 mph - N/A   Unknown
5:55 PM -2.2 °F -15.6 °F -7.6 °F 78% 30.75 in 10.0 mi NNW 6.9 mph - N/A   Unknown
6:15 PM -4.0 °F -19.0 °F -7.6 °F 85% 30.75 in 10.0 mi NNW 8.1 mph - N/A   Unknown
6:35 PM -5.8 °F -19.9 °F -9.4 °F 84% 30.76 in 10.0 mi NW 6.9 mph - N/A   Unknown
6:55 PM -7.6 °F -22.1 °F -11.2 °F 84% 30.76 in 10.0 mi NW 6.9 mph - N/A   Unknown
7:15 PM -7.6 °F -20.6 °F -11.2 °F 84% 30.76 in 10.0 mi NW 5.8 mph - N/A   Unknown
7:35 PM -7.6 °F -22.1 °F -11.2 °F 84% 30.76 in 10.0 mi NNW 6.9 mph - N/A   Unknown
7:55 PM -7.6 °F -20.6 °F -11.2 °F 84% 30.77 in 10.0 mi NW 5.8 mph - N/A   Unknown
8:15 PM -9.4 °F -20.9 °F -13.0 °F 84% 30.78 in 10.0 mi NW 4.6 mph - N/A   Unknown
8:35 PM -9.4 °F -20.9 °F -13.0 °F 84% 30.78 in 10.0 mi NW 4.6 mph - N/A   Unknown
8:55 PM -9.4 °F - -13.0 °F 84% 30.78 in 10.0 mi Calm Calm - N/A   Unknown
9:15 PM -9.4 °F - -13.0 °F 84% 30.79 in 10.0 mi Calm Calm - N/A   Unknown
9:35 PM -9.4 °F - -13.0 °F 84% 30.79 in 10.0 mi Calm Calm - N/A   Unknown
9:55 PM -9.4 °F -22.7 °F -14.8 °F 77% 30.78 in 10.0 mi WNW 5.8 mph - N/A   Unknown
10:15 PM -9.4 °F -22.7 °F -13.0 °F 84% 30.79 in 10.0 mi West 5.8 mph - N/A   Unknown
10:35 PM -9.4 °F -18.6 °F -13.0 °F 84% 30.78 in 10.0 mi WNW 3.5 mph - N/A   Unknown
10:55 PM -11.2 °F -24.8 °F -14.8 °F 84% 30.79 in 10.0 mi West 5.8 mph - N/A   Unknown
11:15 PM -11.2 °F -23.0 °F -14.8 °F 84% 30.79 in 10.0 mi NW 4.6 mph - N/A   Unknown
11:35 PM -11.2 °F -23.0 °F -14.8 °F 84% 30.79 in 10.0 mi NW 4.6 mph - N/A   Unknown
11:55 PM -11.2 °F - -16.6 °F 77% 30.79 in 10.0 mi Calm Calm - N/A   Unknown